EW9240 Weather Reports


Display with metric or nautical units.
time (UTC)temp
F
wind
direction
speed
MPH
gust
MPH
rain 1hr
in
rain 24hr
in
rain mn
in
humidity
%
barometer
mb
20260904154552 54 74 0.0 2.0 0.00 0.04 0.01 92 1010.9
20260904153035 54 120 0.0 3.0 0.00 0.04 0.01 92 1010.9
20260904151554 54 107 0.0 3.0 0.00 0.04 0.01 93 1010.6
20260904150043 53 64 0.0 2.0 0.00 0.04 0.01 93 1010.3
20260904144521 53 131 0.0 0.0 0.00 0.06 0.01 93 1010.3
20260904143005 53 131 0.0 0.0 0.00 0.06 0.01 93 1010.3
20260904141556 53 128 0.0 1.0 0.00 0.06 0.01 93 1010.2
20260904134615 52 139 0.0 0.0 0.00 0.06 0.01 93 1009.9
20260904133054 52 139 0.0 0.0 0.00 0.06 0.01 93 1009.7
20260904131530 52 139 0.0 0.0 0.01 0.06 0.01 93 1009.8
20260904130004 52 123 0.0 1.0 0.01 0.06 0.01 93 1009.5
20260904124603 52 121 0.0 0.0 0.01 0.06 0.01 93 1009.2
20260904123031 52 117 0.0 0.0 0.01 0.06 0.01 93 1009.2
20260904121518 52 54 0.0 1.0 0.00 0.05 0.00 92 1009.1
20260904120057 53 133 0.0 0.0 0.00 0.05 0.00 92 1009.2
20260904114534 53 136 0.0 0.0 0.00 0.05 0.00 91 1009.1
20260904113016 53 134 0.0 1.0 0.00 0.05 0.00 91 1008.9
20260904111602 53 134 0.0 1.0 0.00 0.05 0.00 90 1008.9
20260904110048 53 133 0.0 2.0 0.00 0.05 0.00 90 1008.8
20260904104525 53 126 0.0 1.0 0.00 0.05 0.00 91 1008.8
20260904103002 53 127 0.0 1.0 0.00 0.05 0.00 92 1008.7
20260904101554 53 122 0.0 1.0 0.00 0.05 0.00 92 1008.7
20260904100028 53 127 0.0 0.0 0.00 0.05 0.00 92 1008.6
20260904094514 53 135 0.0 0.0 0.00 0.06 0.00 92 1008.6
20260904093028 53 127 0.0 0.0 0.00 0.06 0.00 92 1008.5
20260904091510 53 127 0.0 0.0 0.00 0.06 0.00 91 1008.4
20260904090020 53 131 0.0 1.0 0.00 0.06 0.00 91 1008.4
20260904084608 54 132 0.0 0.0 0.00 0.06 0.00 91 1008.4
20260904083053 54 133 0.0 1.0 0.00 0.06 0.00 91 1008.4
20260904081535 54 123 0.0 1.0 0.00 0.06 0.00 91 1008.4
20260904080020 55 130 0.0 1.0 0.00 0.06 0.00 91 1008.3
20260904074509 55 122 0.0 2.0 0.00 0.06 0.00 92 1008.4
20260904073103 55 132 0.0 1.0 0.00 0.06 0.00 93 1008.4
20260904071549 55 129 0.0 2.0 0.00 0.06 0.00 93 1008.4
20260904070025 55 136 0.0 1.0 0.00 0.06 0.00 93 1008.4
20260904064606 55 138 0.0 1.0 0.00 0.06 0.06 92 1008.3
20260904063055 55 113 0.0 1.0 0.00 0.06 0.06 92 1008.3
20260904061526 56 55 0.0 1.0 0.00 0.06 0.06 91 1008.3
20260904060006 56 135 0.0 1.0 0.00 0.06 0.06 91 1008.4
20260904054541 56 124 0.0 0.0 0.00 0.06 0.06 90 1008.4
20260904053102 56 124 0.0 0.0 0.00 0.06 0.06 90 1008.5
20260904051558 56 124 0.0 0.0 0.00 0.06 0.06 90 1008.5
20260904050028 56 124 0.0 0.0 0.00 0.06 0.06 90 1008.5
20260904044513 56 124 0.0 0.0 0.00 0.06 0.06 89 1008.5
20260904043052 56 124 0.0 0.0 0.00 0.06 0.06 89 1008.4
20260904041537 56 112 0.0 0.0 0.00 0.06 0.06 89 1008.4
20260904040028 57 110 0.0 0.0 0.00 0.06 0.06 90 1008.5
20260904034506 57 96 0.0 0.0 0.00 0.06 0.06 90 1008.3
20260904033054 57 96 0.0 0.0 0.00 0.06 0.06 89 1008.1
20260904031515 57 86 0.0 0.0 0.00 0.06 0.06 89 1008.0
20260904030106 57 86 0.0 1.0 0.00 0.06 0.06 89 1007.9
20260904024554 57 54 0.0 1.0 0.00 0.06 0.06 88 1007.7
20260904023037 58 46 0.0 1.0 0.00 0.06 0.06 87 1007.8
20260904021526 58 20 0.0 1.0 0.00 0.06 0.06 84 1007.8
20260904020008 58 72 0.0 2.0 0.00 0.06 0.06 84 1007.8
20260904014605 58 127 0.0 2.0 0.00 0.06 0.06 83 1007.9
20260904013041 58 134 0.0 2.0 0.00 0.06 0.06 85 1008.0
20260904011528 58 131 0.0 3.0 0.00 0.06 0.06 86 1008.0
20260904010023 58 110 0.0 2.0 0.00 0.06 0.06 85 1008.0
20260904004546 58 110 0.0 2.0 0.00 0.08 0.06 84 1008.0
20260904003028 58 117 0.0 3.0 0.00 0.08 0.06 86 1008.2
20260904001518 58 129 0.0 1.0 0.00 0.08 0.06 86 1008.1
20260904000058 58 215 0.0 0.0 0.00 0.08 0.06 86 1008.1
20260903234542 58 215 0.0 0.0 0.00 0.16 0.06 86 1007.9
20260903233020 58 217 0.0 2.0 0.00 0.16 0.06 84 1008.1
20260903230044 63 238 0.0 3.0 0.00 0.16 0.06 71 1007.9
20260903224527 64 205 0.0 0.0 0.00 0.16 0.06 68 1007.9
20260903223015 63 210 0.0 3.0 0.00 0.16 0.06 68 1007.9
20260903221600 63 127 0.0 4.0 0.00 0.16 0.06 69 1008.0
20260903220039 62 122 0.0 5.0 0.00 0.16 0.06 71 1008.1
20260903214521 62 136 0.0 5.0 0.00 0.18 0.06 73 1008.1
20260903213105 61 158 1.0 6.0 0.00 0.18 0.06 72 1008.2
20260903211551 62 204 0.0 4.0 0.00 0.18 0.06 75 1008.2
20260903210026 62 177 2.0 10.0 0.00 0.18 0.06 74 1008.2
20260903204502 62 214 1.0 6.0 0.00 0.34 0.06 75 1008.1
20260903203052 61 227 0.0 6.0 0.00 0.34 0.06 78 1008.2
20260903201526 60 153 1.0 9.0 0.01 0.34 0.06 80 1008.2
20260903200013 61 214 0.0 5.0 0.01 0.34 0.06 77 1008.3
20260903194553 60 155 0.0 5.0 0.01 0.44 0.06 78 1008.3
20260903193026 60 217 2.0 8.0 0.01 0.44 0.06 77 1008.5
20260903191513 60 200 3.0 8.0 0.00 0.43 0.05 79 1008.4
20260903190104 60 212 0.0 4.0 0.00 0.43 0.05 83 1008.4
20260903184550 60 207 1.0 8.0 0.00 0.48 0.05 80 1008.5
20260903183026 61 146 0.0 3.0 0.00 0.48 0.05 78 1008.3
20260903181511 61 119 0.0 3.0 0.00 0.48 0.05 78 1008.2
20260903180100 61 127 1.0 4.0 0.00 0.48 0.05 80 1008.3
20260903174538 59 77 0.0 3.0 0.00 0.48 0.05 87 1008.2
20260903173021 58 56 0.0 3.0 0.00 0.48 0.05 88 1008.3
20260903171602 57 37 0.0 0.0 0.00 0.48 0.05 90 1008.4
20260903170039 56 293 0.0 1.0 0.00 0.48 0.05 90 1008.6
20260903164526 55 55 0.0 2.0 0.00 0.48 0.05 91 1008.6
20260903163010 55 93 0.0 1.0 0.00 0.48 0.05 91 1008.5
20260903161604 55 111 0.0 0.0 0.01 0.48 0.05 92 1008.7
20260903160101 54 110 0.0 0.0 0.02 0.48 0.05 92 1008.6